Dades meteomassalio
Diari Summary for Abril 10, 2017 Units:  Metric    English   Both
« Previous Day
Next Day »
Diari Semanal Mensual Anual Personalitzat
  Maxima: Minima: Mijana:
Temperatura: 24.2 °C 11.9 °C 16.9 °C
Rosada: 7.2 °C 4.9 °C 6.3 °C
Humitat: 66 % 29 % 51 %
Velocitat del vent: 5.6 km/h 0.0 km/h 0.1 km/h
Racha vent: 5.6 km/h - -
Vent:- - ENE
Pressio: 1022.6 hPa 1020.9 hPa -
Pluja: 0.0 mm    
Historical Graphs
 
 
Tabular Data for Abril 10, 2017
Time Temperature Dew Point Pressure Wind Wind Speed Wind Gust Humidity Rainfall Rate (Hourly) solar Conditions
20:02 24.2 °C 5.0 °C 1020.9 hPa Calm     29 % 0.0 mm 33.0 W/m2 BKN
20:07 24.1 °C 4.9 °C 1020.9 hPa Calm     29 % 0.0 mm 21.0 W/m2 BKN
20:12 23.7 °C 5.6 °C 1020.9 hPa ENE 5.6 km/h 5.6 km/h 31 % 0.0 mm 16.0 W/m2 BKN
20:17 23.2 °C 6.1 °C 1020.9 hPa Calm     33 % 0.0 mm 14.0 W/m2 BKN
20:22 22.9 °C 6.2 °C 1020.9 hPa Calm     34 % 0.0 mm 11.0 W/m2 BKN
20:28 22.6 °C 6.4 °C 1020.9 hPa Calm     35 % 0.0 mm 7.0 W/m2 BKN
20:33 22.3 °C 6.6 °C 1020.9 hPa Calm     36 % 0.0 mm 5.0 W/m2 OVC
20:38 22.1 °C 6.7 °C 1020.9 hPa Calm     37 % 0.0 mm 0.0 W/m2 OVC
20:43 21.8 °C 6.5 °C 1020.9 hPa Calm     37 % 0.0 mm 0.0 W/m2 OVC
20:48 21.5 °C 6.6 °C 1020.9 hPa Calm     38 % 0.0 mm 0.0 W/m2 CLR
20:53 21.2 °C 6.7 °C 1020.9 hPa Calm     39 % 0.0 mm 0.0 W/m2 CLR
20:58 20.9 °C 6.4 °C 1021.2 hPa Calm     39 % 0.0 mm 0.0 W/m2 CLR
21:03 20.5 °C 6.4 °C 1021.2 hPa Calm     40 % 0.0 mm 0.0 W/m2 CLR
21:08 20.0 °C 6.7 °C 1021.2 hPa Calm     42 % 0.0 mm 0.0 W/m2 CLR
21:13 19.6 °C 6.9 °C 1021.2 hPa Calm     44 % 0.0 mm 0.0 W/m2 CLR
21:18 19.1 °C 6.9 °C 1021.2 hPa Calm     45 % 0.0 mm 0.0 W/m2 CLR
21:23 18.7 °C 7.2 °C 1021.2 hPa Calm     47 % 0.0 mm 0.0 W/m2 CLR
21:28 18.4 °C 6.9 °C 1021.2 hPa Calm     47 % 0.0 mm 0.0 W/m2 CLR
21:33 18.1 °C 6.9 °C 1021.6 hPa Calm     48 % 0.0 mm 0.0 W/m2 CLR
21:38 17.5 °C 6.9 °C 1021.6 hPa Calm     50 % 0.0 mm 0.0 W/m2 CLR
21:43 17.0 °C 6.8 °C 1021.9 hPa Calm     51 % 0.0 mm 0.0 W/m2 CLR
21:48 16.6 °C 6.7 °C 1021.9 hPa Calm     52 % 0.0 mm 0.0 W/m2 CLR
21:53 16.3 °C 6.4 °C 1021.9 hPa Calm     52 % 0.0 mm 0.0 W/m2 CLR
21:58 15.9 °C 6.6 °C 1021.9 hPa Calm     54 % 0.0 mm 0.0 W/m2 CLR
22:03 15.6 °C 6.6 °C 1021.9 hPa Calm     55 % 0.0 mm 0.0 W/m2 CLR
22:08 15.4 °C 6.4 °C 1021.9 hPa Calm     55 % 0.0 mm 0.0 W/m2 CLR
22:13 15.2 °C 6.5 °C 1021.9 hPa Calm     56 % 0.0 mm 0.0 W/m2 CLR
22:18 15.1 °C 6.6 °C 1021.9 hPa Calm     57 % 0.0 mm 0.0 W/m2 CLR
22:23 14.9 °C 6.4 °C 1021.9 hPa Calm     57 % 0.0 mm 0.0 W/m2 CLR
22:28 14.4 °C 6.3 °C 1021.9 hPa Calm     58 % 0.0 mm 0.0 W/m2 CLR
22:33 14.1 °C 6.4 °C 1022.2 hPa Calm     60 % 0.0 mm 0.0 W/m2 CLR
22:38 13.9 °C 6.2 °C 1022.2 hPa Calm     60 % 0.0 mm 0.0 W/m2 CLR
22:43 13.7 °C 6.3 °C 1022.2 hPa Calm     61 % 0.0 mm 0.0 W/m2 CLR
22:48 13.6 °C 6.4 °C 1022.2 hPa Calm     62 % 0.0 mm 0.0 W/m2 CLR
22:53 13.4 °C 6.3 °C 1022.2 hPa Calm     62 % 0.0 mm 0.0 W/m2 CLR
22:58 13.2 °C 6.1 °C 1022.2 hPa Calm     62 % 0.0 mm 0.0 W/m2 CLR
23:03 13.2 °C 6.1 °C 1022.2 hPa Calm     62 % 0.0 mm 0.0 W/m2 CLR
23:08 13.1 °C 6.2 °C 1022.2 hPa Calm     63 % 0.0 mm 0.0 W/m2 CLR
23:13 13.0 °C 6.1 °C 1022.2 hPa Calm     63 % 0.0 mm 0.0 W/m2 CLR
23:18 12.8 °C 5.9 °C 1022.2 hPa Calm     63 % 0.0 mm 0.0 W/m2 CLR
23:23 12.7 °C 6.1 °C 1022.2 hPa Calm     64 % 0.0 mm 0.0 W/m2 CLR
23:28 12.7 °C 5.8 °C 1022.2 hPa Calm     63 % 0.0 mm 0.0 W/m2 CLR
23:33 12.9 °C 5.8 °C 1022.2 hPa Calm     62 % 0.0 mm 0.0 W/m2 CLR
23:38 12.8 °C 5.9 °C 1022.6 hPa Calm     63 % 0.0 mm 0.0 W/m2 CLR
23:43 12.7 °C 5.8 °C 1022.2 hPa Calm     63 % 0.0 mm 0.0 W/m2 CLR
23:48 12.4 °C 5.8 °C 1022.2 hPa Calm     64 % 0.0 mm 0.0 W/m2 CLR
23:53 12.1 °C 5.7 °C 1022.6 hPa Calm     65 % 0.0 mm 0.0 W/m2 CLR
23:58 11.9 °C 5.7 °C 1022.6 hPa Calm     66 % 0.0 mm 0.0 W/m2 CLR
Lo Temps de Massalio
Compliments of Weather Underground - 512 kb